Вернуться в каталог

STARLINK-2426

АктивенСвязьVLEO
NORAD 47836·PAYLOAD·🇺🇸 United States

Запущен Mar 11, 2021 с Cape Canaveral Space Force Station

Loading…

Ближайшие Пролёты (ближайшие 24 часа)

TLE

СвежийSource: CelesTrak SupGP

Эпоха: Sep 15, 2026, 01:09 UTC

1 47836C 21018BB  26258.04840278 -.00081213  00000+0 -26094-2 0  2583
2 47836  53.1584  83.7696 0001112  90.1813 236.5164 15.31769674    19

Отслеживайте STARLINK-2426 в реальном времени с AllMySat

Download on the App Store